Location: Doschendorf
(50.0069°N, 11.0602°E)
Time: 07:51:34
(UTC+00:00)

Cosmos 2263 Rocket - Pass Details

Date: 17 November 2019
Orbit: 825 x 847 km, 71.0° (Epoch: 09 December)

Event Time Altitude Azimuth Distance (km) Brightness Sun altitude
Rises 18:27:20 0° 329° (NNW) 3,376 5.8 -28.3°
Reaches altitude 10° 18:29:47 10° 328° (NNW) 2,438 5.0 -28.7°
Enters shadow 18:35:06 74° 271° (W) 864 2.2 -29.5°
